TimeEDT,TemperatureF,Dew PointF,Humidity,Sea Level PressureIn,VisibilityMPH,Wind Direction,Wind SpeedMPH,Gust SpeedMPH,PrecipitationIn,Events,Conditions,WindDirDegrees,DateUTC
12:15 AM,71.6,69.8,94,29.90,8.0,SE,4.6,-,N/A,,Clear,140,2012-10-18 04:15:00
12:35 AM,71.6,69.8,94,29.89,9.0,SE,4.6,-,N/A,,Clear,130,2012-10-18 04:35:00
12:55 AM,71.6,69.8,94,29.88,9.0,SSE,6.9,-,N/A,,Clear,150,2012-10-18 04:55:00
1:15 AM,71.6,68.0,88,29.88,8.0,SSE,6.9,-,N/A,,Clear,150,2012-10-18 05:15:00
1:35 AM,71.6,68.0,88,29.87,10.0,SSE,6.9,-,N/A,,Clear,150,2012-10-18 05:35:00
1:55 AM,71.6,68.0,88,29.87,9.0,SSE,6.9,-,N/A,,Clear,150,2012-10-18 05:55:00
2:15 AM,69.8,68.0,94,29.86,9.0,SSE,6.9,-,N/A,,Clear,150,2012-10-18 06:15:00
2:35 AM,69.8,68.0,94,29.85,8.0,South,5.8,-,N/A,,Clear,170,2012-10-18 06:35:00
2:55 AM,69.8,68.0,94,29.85,8.0,SSE,5.8,-,N/A,,Clear,150,2012-10-18 06:55:00
3:15 AM,69.8,68.0,94,29.85,7.0,South,4.6,-,N/A,,Clear,170,2012-10-18 07:15:00
3:35 AM,69.8,68.0,94,29.85,9.0,Calm,Calm,-,N/A,,Clear,0,2012-10-18 07:35:00
3:55 AM,69.8,66.2,88,29.84,8.0,Calm,Calm,-,N/A,,Clear,0,2012-10-18 07:55:00
4:15 AM,68.0,66.2,94,29.84,7.0,Calm,Calm,-,N/A,,Clear,0,2012-10-18 08:15:00
4:35 AM,66.2,66.2,100,29.84,5.0,Calm,Calm,-,N/A,,Clear,0,2012-10-18 08:35:00
4:55 AM,69.8,68.0,94,29.85,7.0,South,6.9,-,N/A,,Mostly Cloudy,190,2012-10-18 08:55:00
5:15 AM,69.8,69.8,100,29.86,5.0,SSW,3.5,-,N/A,,Overcast,200,2012-10-18 09:15:00
5:35 AM,69.8,69.8,100,29.86,5.0,Calm,Calm,-,N/A,,Overcast,0,2012-10-18 09:35:00
6:55 AM,69.8,69.8,100,29.89,7.0,Calm,Calm,-,N/A,,Overcast,0,2012-10-18 10:55:00
7:15 AM,69.8,69.8,100,29.89,5.0,Calm,Calm,-,N/A,,Overcast,0,2012-10-18 11:15:00
7:35 AM,69.8,69.8,100,29.90,4.0,West,5.8,-,N/A,,Overcast,280,2012-10-18 11:35:00
7:55 AM,69.8,68.0,94,29.91,2.0,WSW,4.6,-,N/A,,Overcast,250,2012-10-18 11:55:00
8:15 AM,69.8,68.0,94,29.91,6.0,WSW,3.5,-,N/A,,Overcast,240,2012-10-18 12:15:00
8:35 AM,69.8,69.8,100,29.92,7.0,Calm,Calm,-,N/A,,Overcast,0,2012-10-18 12:35:00
8:55 AM,69.8,69.8,100,29.92,7.0,Calm,Calm,-,N/A,,Overcast,0,2012-10-18 12:55:00
9:35 AM,71.6,69.8,94,29.92,9.0,Calm,Calm,-,N/A,,Mostly Cloudy,0,2012-10-18 13:35:00
9:55 AM,73.4,69.8,88,29.92,10.0,Calm,Calm,-,N/A,,Partly Cloudy,0,2012-10-18 13:55:00
10:35 AM,77.0,69.8,78,29.91,10.0,South,5.8,-,N/A,,Clear,180,2012-10-18 14:35:00
10:55 AM,78.8,71.6,78,29.91,10.0,South,6.9,-,N/A,,Clear,180,2012-10-18 14:55:00
11:15 AM,80.6,71.6,74,29.90,9.0,South,5.8,-,N/A,,Clear,180,2012-10-18 15:15:00
11:35 AM,82.4,71.6,70,29.90,10.0,South,8.1,-,N/A,,Clear,190,2012-10-18 15:35:00
11:55 AM,82.4,69.8,66,29.89,10.0,SSW,8.1,-,N/A,,Clear,200,2012-10-18 15:55:00
12:15 PM,84.2,69.8,62,29.88,10.0,SSW,8.1,-,N/A,,Clear,210,2012-10-18 16:15:00
12:35 PM,84.2,69.8,62,29.87,10.0,South,10.4,-,N/A,,Clear,190,2012-10-18 16:35:00
12:55 PM,84.2,69.8,62,29.87,10.0,SW,8.1,-,N/A,,Clear,220,2012-10-18 16:55:00
1:15 PM,84.2,69.8,62,29.86,9.0,SSW,9.2,-,N/A,,Partly Cloudy,210,2012-10-18 17:15:00
1:35 PM,86.0,69.8,58,29.85,10.0,SSW,8.1,-,N/A,,Clear,200,2012-10-18 17:35:00
1:55 PM,87.8,69.8,55,29.84,10.0,West,6.9,-,N/A,,Partly Cloudy,260,2012-10-18 17:55:00
2:15 PM,86.0,68.0,55,29.83,10.0,SW,9.2,-,N/A,,Partly Cloudy,220,2012-10-18 18:15:00
2:35 PM,86.0,68.0,55,29.82,10.0,South,9.2,-,N/A,,Scattered Clouds,180,2012-10-18 18:35:00
2:55 PM,84.2,68.0,58,29.82,10.0,SW,4.6,-,N/A,,Partly Cloudy,220,2012-10-18 18:55:00
3:15 PM,87.8,68.0,52,29.82,10.0,SW,6.9,-,N/A,,Scattered Clouds,220,2012-10-18 19:15:00
3:35 PM,87.8,68.0,52,29.82,10.0,SSW,10.4,-,N/A,,Partly Cloudy,200,2012-10-18 19:35:00
3:55 PM,86.0,68.0,55,29.82,10.0,SSW,8.1,-,N/A,,Clear,210,2012-10-18 19:55:00
4:15 PM,86.0,68.0,55,29.82,10.0,SSW,8.1,-,N/A,,Clear,210,2012-10-18 20:15:00
4:35 PM,87.8,68.0,52,29.82,10.0,SSW,6.9,-,N/A,,Clear,200,2012-10-18 20:35:00
4:55 PM,87.8,66.2,49,29.82,10.0,WSW,3.5,-,N/A,,Clear,240,2012-10-18 20:55:00
5:35 PM,86.0,66.2,51,29.83,10.0,SSW,5.8,-,N/A,,Clear,210,2012-10-18 21:35:00
5:55 PM,86.0,66.2,51,29.83,10.0,Calm,Calm,-,N/A,,Clear,0,2012-10-18 21:55:00
6:15 PM,84.2,66.2,55,29.83,10.0,Calm,Calm,-,N/A,,Clear,0,2012-10-18 22:15:00
6:35 PM,82.4,68.0,62,29.83,10.0,Calm,Calm,-,N/A,,Clear,0,2012-10-18 22:35:00
6:55 PM,82.4,66.2,58,29.84,10.0,Calm,Calm,-,N/A,,Clear,0,2012-10-18 22:55:00
7:15 PM,80.6,69.8,70,29.84,10.0,Calm,Calm,-,N/A,,Clear,0,2012-10-18 23:15:00
7:35 PM,78.8,69.8,74,29.84,10.0,Calm,Calm,-,N/A,,Clear,0,2012-10-18 23:35:00
7:55 PM,77.0,69.8,78,29.85,8.0,Calm,Calm,-,N/A,,Clear,0,2012-10-18 23:55:00
8:15 PM,75.2,69.8,83,29.85,10.0,Calm,Calm,-,N/A,,Clear,0,2012-10-19 00:15:00
8:35 PM,73.4,69.8,88,29.86,10.0,Calm,Calm,-,N/A,,Clear,0,2012-10-19 00:35:00
8:55 PM,75.2,69.8,83,29.86,10.0,Calm,Calm,-,N/A,,Scattered Clouds,0,2012-10-19 00:55:00
9:15 PM,75.2,69.8,83,29.87,10.0,Calm,Calm,-,N/A,,Partly Cloudy,0,2012-10-19 01:15:00
9:35 PM,75.2,69.8,83,29.87,9.0,Calm,Calm,-,N/A,,Partly Cloudy,0,2012-10-19 01:35:00
9:55 PM,75.2,69.8,83,29.87,10.0,Calm,Calm,-,N/A,,Clear,0,2012-10-19 01:55:00
10:15 PM,73.4,69.8,88,29.88,10.0,Calm,Calm,-,N/A,,Clear,0,2012-10-19 02:15:00
10:35 PM,75.2,69.8,83,29.88,10.0,Calm,Calm,-,N/A,,Mostly Cloudy,0,2012-10-19 02:35:00
10:55 PM,75.2,66.2,73,29.89,10.0,West,5.8,-,N/A,,Mostly Cloudy,280,2012-10-19 02:55:00
11:55 PM,75.2,66.2,73,29.89,10.0,West,4.6,-,N/A,,Clear,260,2012-10-19 03:55:00